Overview Statistics Trail Chart Weather Telemetry Raw packets
 

This is the latest recevied weather packets stored in our database for station/object OM6ACB-6. If no packets are shown the sender has not sent any weather packets the latest 10 day(s).

<< 42 43 44 45 46 47 48 >>
Time Temp. Humidity Pressure Rain* Wind** Luminosity Snow
1788015080 29.44° C 20% 1021.5 hPa 0 mm - - -
1788014480 28.33° C 20% 1021.3 hPa 0 mm - - -
1788013880 28.89° C 20% 1021.5 hPa 0 mm - - -
1788013279 27.78° C 20% 1021.3 hPa 0 mm - - -
1788012679 26.11° C 20% 1021.3 hPa 0 mm - - -
1788012079 28.33° C 20% 1021.5 hPa 0 mm - - -
1788011479 25° C 20% 1021.2 hPa 0 mm - - -
1788010878 25° C 20% 1021.2 hPa 0 mm - - -
1788010278 25.56° C 20% 1021.3 hPa 0 mm - - -
1788009678 25° C 20% 1021.3 hPa 0 mm - - -
1788009077 23.89° C 21% 1021.1 hPa 0 mm - - -
1788008477 26.67° C 20% 1021.5 hPa 0 mm - - -
1788007877 25° C 20% 1021.3 hPa 0 mm - - -
1788007277 25.56° C 20% 1021.5 hPa 0 mm - - -
1788006676 26.11° C 20% 1021.5 hPa 0 mm - - -
1788006076 25° C 20% 1021.3 hPa 0 mm - - -
1788005476 26.11° C 20% 1021.6 hPa 0 mm - - -
1788004877 26.11° C 20% 1021.6 hPa 0 mm - - -
1788004275 25° C 20% 1021.5 hPa 0 mm - - -
1788003675 26.67° C 20% 1021.9 hPa 0 mm - - -
1788003074 25° C 20% 1021.6 hPa 0 mm - - -
1788002474 25.56° C 20% 1021.7 hPa 0 mm - - -
1788001874 23.33° C 21% 1021.6 hPa 0 mm - - -
1788001274 24.44° C 20% 1021.6 hPa 0 mm - - -
1788000673 22.78° C 21% 1021.3 hPa 0 mm - - -

* Rain latest hour (hover to see other rain measurements)
** Current wind speed in m/s (hover to see current wind gust speed)